Glendale Luke AFB, AZ

1:14 AM MST on November 17, 2019 (GMT -0700)
Luke Air Force Base

Weather History for KLUF - July, 2019

Change the Weather History Date:

Sunday, July 14, 2019

  Actual Average Record
Temperature  
Mean Temperature 98 °F -  
Max Temperature 109 °F 108 °F 116 °F (1949)
Min Temperature 88 °F 76 °F 64 °F (1952)
Cooling Degree Days 34    
Growing Degree Days 48 (Base 50)    
Moisture  
Dew Point 58 °F    
Average Humidity 27    
Maximum Humidity 36    
Minimum Humidity 15    
Precipitation  
Precipitation 0.00 in - - ()
Sea Level Pressure  
Sea Level Pressure 29.80 in    
Wind  
Wind Speed 8 mph (SW)    
Max Wind Speed 20 mph    
Max Gust Speed 22 mph    
Visibility 10 miles    
Events      
Averages and records for this station are not official NWS values.
T = Trace of Precipitation, MM = Missing Value Source: NWS Daily Summary

Daily Weather History Graph

Daily Weather History Graph

Search for Another Location

Airport or City:

Astronomy

Jul. 14, 2019 Rise Set
Actual Time 5:29 AM MST 7:40 PM MST
Civil Twilight 5:01 AM MST 8:08 PM MST
Nautical Twilight 4:26 AM MST 8:43 PM MST
Astronomical Twilight 3:49 AM MST 9:20 PM MST
Moon 6:06 PM MST (7/14) 3:33 AM MST (7/14)
Length of Visible Light 15h 07m
Length of Day
14h 10m
Waxing Gibbous, 96% of the Moon is Illuminated
Jul 14
Waxing Gibbous
Jul 16
Full
Jul 24
Last Quarter
Jul 31
New
Aug 7
First Quarter

Hourly Weather History & Observations

Time (MST) Temp. Heat Index Dew Point Humidity Pressure Visibility Wind Dir Wind Speed Gust Speed Precip Events Conditions
12:58 AM 95.5 °F 94.4 °F 57.2 °F 28% 29.81 in 10.0 mi South 8.1 mph - N/A   Scattered Clouds
1:58 AM 93.6 °F 92.4 °F 57.4 °F 30% 29.81 in 10.0 mi SSW 4.6 mph - N/A   Partly Cloudy
2:58 AM 91.9 °F 91.2 °F 58.6 °F 33% 29.80 in 10.0 mi WSW 5.8 mph - N/A   Mostly Cloudy
3:58 AM 92.7 °F 92.5 °F 60.1 °F 34% 29.81 in 10.0 mi SW 6.9 mph - N/A   Mostly Cloudy
4:58 AM 89.8 °F 89.1 °F 59.9 °F 36% 29.82 in 10.0 mi West 3.5 mph - N/A   Partly Cloudy
5:58 AM 88.5 °F 87.5 °F 58.1 °F 36% 29.83 in 10.0 mi West 3.5 mph - N/A   Mostly Cloudy
6:58 AM 92.7 °F 91.8 °F 58.5 °F 32% 29.85 in 10.0 mi ESE 3.5 mph - N/A   Partly Cloudy
7:58 AM 93.6 °F 94.6 °F 62.6 °F 36% 29.87 in 10.0 mi South 8.1 mph - N/A   Partly Cloudy
8:36 AM 95.0 °F 96.0 °F 62.6 °F 34% 29.87 in 10.0 mi SW 13.8 mph - N/A   Scattered Clouds
8:58 AM 94.1 °F 94.6 °F 61.3 °F 34% 29.88 in 10.0 mi SW 16.1 mph - N/A   Scattered Clouds
9:58 AM 94.5 °F 94.4 °F 60.8 °F 32% 29.87 in 10.0 mi SW 12.7 mph - N/A   Scattered Clouds
10:58 AM 96.1 °F 96.0 °F 60.4 °F 30% 29.87 in 10.0 mi SW 9.2 mph - N/A   Scattered Clouds
11:58 AM 98.6 °F 98.0 °F 57.7 °F 26% 29.86 in 10.0 mi SW 5.8 mph - N/A   Scattered Clouds
12:58 PM 101.8 °F 102.4 °F 59.4 °F 25% 29.82 in 10.0 mi SW 6.9 mph - N/A   Mostly Cloudy
1:58 PM 106.5 °F 107.3 °F 58.3 °F 21% 29.79 in 10.0 mi SW 19.6 mph - N/A   Clear
2:58 PM 108.0 °F 107.3 °F 55.2 °F 18% 29.76 in 10.0 mi SW 17.3 mph 21.9 mph N/A   Clear
3:44 PM 109.4 °F - 51.8 °F 15% 29.75 in 10.0 mi West 12.7 mph 18.4 mph N/A   Clear
3:58 PM 108.5 °F - 52.3 °F 16% 29.75 in 10.0 mi WNW 13.8 mph - N/A   Clear
4:58 PM 109.2 °F - 51.3 °F 15% 29.72 in 10.0 mi WSW 12.7 mph 17.3 mph N/A   Clear
5:58 PM 108.9 °F - 52.7 °F 16% 29.72 in 10.0 mi WSW 10.4 mph - N/A   Partly Cloudy
6:58 PM 101.8 °F 101.4 °F 58.1 °F 23% 29.73 in 10.0 mi NNE 12.7 mph - N/A   Clear
7:58 PM 99.1 °F 98.4 °F 57.0 °F 25% 29.74 in 10.0 mi Calm Calm - N/A   Clear
8:58 PM 97.9 °F 97.4 °F 58.1 °F 27% 29.75 in 10.0 mi Calm Calm - N/A   Clear
9:58 PM 98.1 °F 97.7 °F 58.3 °F 27% 29.77 in 10.0 mi Calm Calm - N/A   Clear
10:58 PM 96.6 °F 95.6 °F 57.0 °F 27% 29.79 in 10.0 mi North 3.5 mph - N/A   Clear
11:58 PM 95.4 °F 94.2 °F 57.0 °F 28% 29.79 in 10.0 mi South 4.6 mph - N/A   Clear